Location: Bailleul
(50.3375°N, 2.8513°E)
Time: 08:16:51
(UTC+00:00)

SJ 16-02 - Pass Details

Date: 16 June 2021
Orbit: 606 x 616 km, 75.0° (Epoch: 27 July)

Event Time Altitude Azimuth Distance (km) Brightness Sun altitude
Rises 22:09:23 0° 350° (N) 2,880 6.5 -13.0°
Reaches altitude 10° 22:13:34 10° 28° (NNE) 1,969 4.5 -13.3°
Maximum altitude 22:14:38 11° 42° (NE) 1,918 4.2 -13.4°
Drops below altitude 10° 22:15:42 10° 57° (ENE) 1,965 4.1 -13.4°
Sets 22:19:51 0° 95° (E) 2,863 4.5 -13.7°
